sat.trackr.live / text

‹ back to catalog

STARLINK-6210

NORAD 56485 · 2023-064AP

PAYLOAD ACTIVE UNKNOWN

§ Identity

Operator
Country
US
Launch date
2023-05-10
Launch site
AFWTR
Launch vehicle
Mass (kg)
RCS (m²)

Purposes: comms

External: N2YO · Heavens-Above · Gunter

§ Orbital elements

Epoch: 2026-05-25T03:06:02.027232Z

Period
96.11 min
Inclination
69.9989°
Eccentricity
0.0002535
Mean motion
14.98343205 rev/d
Perigee alt
570.3 km
Apogee alt
573.8 km
Semi-major
6,950.2 km
B*
-2.1323e-4
RAAN
291.5405°
Arg perigee
271.1570°
Mean anomaly
88.9299°
Rev number
16,719

§ Raw data

STARLINK-62101 56485U 23064AP  26145.12919013 -.00002637  00000+0 -21323-3 0  99902 56485  69.9989 291.5405 0002535 271.1570  88.9299 14.98343205167192

JSON: /api/v1/satellites/56485 · /tle

For live sub-satellite position, see the globe view (requires WebGL).

§ Visibility from observer

Set your observer location to see the next 7 days of passes ≥ 10°. The values pass through the URL so the page stays shareable.

No JS? Fill the form by hand. The geolocation button needs JavaScript.